EW0482 Weather Reports


Display with metric or nautical units.
time (UTC)temp
F
wind
direction
speed
MPH
gust
MPH
rain 1hr
in
rain 24hr
in
rain mn
in
humidity
%
barometer
mb
20260508060013 60 270 0.0 0.0 0.00 0.00 0.00 16 1004.9
20260508054502 60 270 0.0 0.0 0.00 0.00 0.00 21 1005.0
20260508053058 60 270 0.0 0.0 0.00 0.00 0.00 22 1005.0
20260508051555 60 270 0.0 0.0 0.00 0.00 0.00 23 1005.0
20260508050052 60 270 0.0 1.0 0.00 0.00 0.00 22 1004.9
20260508044551 60 271 0.0 0.0 0.00 0.00 0.00 25 1004.8
20260508043044 60 271 0.0 0.0 0.00 0.00 0.00 30 1004.7
20260508041538 60 271 0.0 0.0 0.00 0.00 0.00 38 1004.4
20260508040035 60 271 0.0 0.0 0.00 0.00 0.00 43 1004.3
20260508034532 60 272 0.0 0.0 0.00 0.00 0.00 52 1004.0
20260508033023 61 273 0.0 1.0 0.00 0.00 0.00 55 1003.8
20260508031518 61 273 0.0 1.0 0.00 0.00 0.00 61 1003.6
20260508030022 62 254 0.0 2.0 0.00 0.00 0.00 69 1003.6
20260508024516 63 256 0.0 2.0 0.00 0.00 0.00 72 1003.3
20260508023006 63 252 0.0 0.0 0.00 0.00 0.00 73 1003.2
20260508021500 64 249 0.0 3.0 0.00 0.00 0.00 73 1003.1
20260508020109 64 247 0.0 4.0 0.00 0.00 0.00 73 1003.0
20260508014559 65 263 0.0 4.0 0.00 0.00 0.00 74 1002.9
20260508013059 66 236 0.0 2.0 0.00 0.00 0.00 73 1002.8
20260508011546 67 251 0.0 5.0 0.00 0.00 0.00 72 1002.8
20260508010039 68 244 0.0 5.0 0.00 0.00 0.00 72 1002.8
20260508004535 68 246 2.0 8.0 0.00 0.00 0.00 71 1002.8
20260508003032 69 254 1.0 7.0 0.00 0.00 0.00 70 1002.8
20260508001540 69 239 0.0 5.0 0.00 0.00 0.00 70 1002.8
20260508000021 69 258 1.0 6.0 0.00 0.00 0.00 70 1002.8
20260507234517 69 261 0.0 4.0 0.00 0.00 0.00 70 1002.9
20260507233022 69 255 0.0 6.0 0.00 0.00 0.00 72 1003.0
20260507231511 69 250 2.0 9.0 0.00 0.00 0.00 71 1003.1
20260507230015 70 250 1.0 9.0 0.00 0.00 0.00 70 1003.1
20260507224602 70 248 0.0 5.0 0.00 0.00 0.00 71 1003.1
20260507223058 70 237 0.0 5.0 0.00 0.00 0.00 70 1003.2
20260507221551 70 240 0.0 9.0 0.00 0.00 0.00 69 1003.3
20260507220047 71 242 1.0 8.0 0.00 0.00 0.00 68 1003.4
20260507214546 70 259 0.0 6.0 0.00 0.00 0.00 70 1003.6
20260507213044 70 250 0.0 9.0 0.00 0.00 0.00 70 1003.7
20260507211545 69 252 1.0 8.0 0.00 0.00 0.00 71 1003.8
20260507210029 69 236 2.0 8.0 0.00 0.00 0.00 71 1004.0
20260507204524 69 217 2.0 10.0 0.00 0.00 0.00 71 1004.1
20260507203020 70 194 1.0 9.0 0.00 0.00 0.00 70 1004.2
20260507201525 70 245 0.0 9.0 0.00 0.00 0.00 70 1004.4
20260507200013 71 246 1.0 7.0 0.00 0.00 0.00 68 1004.5
20260507194507 72 232 0.0 5.0 0.00 0.00 0.00 69 1004.7
20260507193005 72 250 0.0 7.0 0.00 0.00 0.00 67 1004.7
20260507191603 73 242 2.0 7.0 0.00 0.00 0.00 65 1004.8
20260507190054 73 272 0.0 6.0 0.00 0.00 0.00 66 1005.0
20260507184549 73 250 0.0 5.0 0.00 0.00 0.00 68 1005.0
20260507183053 72 257 0.0 4.0 0.00 0.00 0.00 67 1005.2
20260507181540 72 213 0.0 2.0 0.00 0.00 0.00 69 1005.2
20260507180047 71 173 0.0 1.0 0.00 0.00 0.00 69 1005.3
20260507174533 70 249 0.0 3.0 0.00 0.00 0.00 71 1005.3
20260507173029 70 251 1.0 7.0 0.00 0.00 0.00 70 1005.4
20260507171523 71 247 0.0 5.0 0.00 0.00 0.00 71 1005.4
20260507170034 71 260 0.0 3.0 0.00 0.00 0.00 70 1005.4
20260507164514 70 248 0.0 2.0 0.00 0.00 0.00 70 1005.4
20260507163010 69 248 0.0 3.0 0.00 0.00 0.00 72 1005.5
20260507161506 67 248 0.0 1.0 0.00 0.00 0.00 71 1005.6
20260507160000 67 242 0.0 2.0 0.00 0.00 0.00 69 1005.6
20260507154556 66 257 0.0 2.0 0.00 0.00 0.00 66 1005.7
20260507153103 65 252 0.0 1.0 0.00 0.00 0.00 64 1005.7
20260507151548 64 251 0.0 1.0 0.00 0.00 0.00 47 1005.7
20260507150045 62 252 0.0 1.0 0.00 0.00 0.00 17 1005.7
20260507144543 61 252 0.0 1.0 0.00 0.00 0.00 1 1005.6
20260507143034 61 254 0.0 0.0 0.00 0.00 0.00 100 1005.6
20260507141530 60 254 0.0 0.0 0.00 0.00 0.00 100 1005.5
20260507140033 60 254 0.0 0.0 0.00 0.00 0.00 100 1005.2
20260507134521 58 254 0.0 0.0 0.00 0.00 0.00 100 1005.2
20260507133017 57 254 0.0 0.0 0.00 0.00 0.00 100 1005.1
20260507131512 56 254 0.0 0.0 0.00 0.00 0.00 100 1005.0
20260507130008 56 254 0.0 0.0 0.00 0.00 0.00 100 1004.9
20260507124503 55 254 0.0 0.0 0.00 0.00 0.00 100 1004.8
20260507123059 55 254 0.0 0.0 0.00 0.00 0.00 100 1004.8
20260507121558 56 254 0.0 0.0 0.00 0.00 0.00 100 1004.8
20260507120051 56 254 0.0 0.0 0.00 0.00 0.00 100 1004.8
20260507114546 56 254 0.0 0.0 0.00 0.00 0.00 100 1004.8
20260507113046 56 254 0.0 0.0 0.00 0.00 0.00 100 1004.9
20260507111537 56 254 0.0 0.0 0.00 0.00 0.00 100 1004.9
20260507110035 56 254 0.0 0.0 0.00 0.00 0.00 100 1005.0
20260507104528 56 254 0.0 0.0 0.00 0.00 0.00 1 1005.1
20260507103024 56 254 0.0 0.0 0.00 0.00 0.00 1 1005.4
20260507101520 56 254 0.0 0.0 0.00 0.00 0.00 5 1005.3
20260507100016 56 254 0.0 0.0 0.00 0.00 0.00 7 1005.4
20260507094512 57 254 0.0 0.0 0.00 0.00 0.00 8 1005.5
20260507093013 57 254 0.0 0.0 0.00 0.00 0.00 9 1005.5
20260507091504 57 254 0.0 0.0 0.00 0.00 0.00 14 1005.7
20260507090002 57 254 0.0 0.0 0.00 0.00 0.00 14 1005.8
20260507084607 57 254 0.0 0.0 0.00 0.00 0.00 14 1005.9
20260507083058 57 254 0.0 0.0 0.00 0.00 0.00 20 1006.0
20260507081559 57 254 0.0 0.0 0.00 0.00 0.00 25 1006.1
20260507080056 58 254 0.0 0.0 0.00 0.00 0.00 23 1006.1
20260507074557 57 254 0.0 0.0 0.00 0.00 0.00 26 1006.2
20260507073052 58 254 0.0 0.0 0.00 0.00 0.00 30 1006.2
20260507071549 58 254 0.0 0.0 0.00 0.00 0.00 31 1006.3
20260507064553 58 254 0.0 0.0 0.00 0.00 0.00 38 1006.4
20260507063047 59 254 0.0 0.0 0.00 0.00 0.00 37 1006.5
20260507061544 58 254 0.0 0.0 0.00 0.00 0.00 41 1006.4